{"data":{"norad_id":58447,"epoch":"2026-05-24T20:35:14.846208Z","epoch_age_seconds":80488,"freshness":"FRESH","line1":"1 58447U 23183L   26144.85781072  .00000259  00000+0  18943-4 0  9994","line2":"2 58447  43.0025 331.4576 0001656 261.1610  98.9054 15.27581946138384","mean_motion":15.27581946,"eccentricity":0.0001656,"inclination_deg":43.0025,"raan_deg":331.4576,"arg_perigee_deg":261.161,"mean_anomaly_deg":98.9054,"bstar":1.8943e-5,"rev_number":13838,"period_min":94.266628626416,"perigee_km":481.90705756922,"apogee_km":484.17948047432,"semimajor_km":6861.1802690218,"source":"CELESTRAK","updated_at":"2026-05-25T13:38:18.623791Z"}}